This is the latest recevied weather packets stored in our database for station/object M0ADS. If no packets are shown the sender has not sent any weather packets the latest 10 day(s).
| Time | Temp. | Humidity | Pressure | Rain* | Wind** | Luminosity | Snow |
|---|---|---|---|---|---|---|---|
| 1777019279 | 10° C | 71% | 1027.3 hPa | 0 mm | - | - | - |
| 1777018379 | 10° C | 73% | 1027.4 hPa | 0 mm | - | - | - |
| 1777017476 | 8.33° C | 76% | 1027.3 hPa | 0 mm | - | - | - |
| 1777016576 | 7.78° C | 79% | 1027.3 hPa | 0 mm | - | - | - |
| 1777015676 | 6.67° C | 80% | 1027.4 hPa | 0 mm | - | - | - |
| 1777014774 | 6.67° C | 84% | 1027.3 hPa | 0 mm | - | - | - |
| 1777013874 | 6.11° C | 85% | 1027.3 hPa | 0 mm | - | - | - |
| 1777012974 | 5.56° C | 87% | 1027.3 hPa | 0 mm | - | - | - |
| 1777012074 | 5.56° C | 89% | 1027.3 hPa | 0 mm | - | - | - |
| 1777011173 | 4.44° C | 90% | 1027.5 hPa | 0 mm | - | - | - |
| 1777010274 | 3.89° C | 90% | 1027.5 hPa | 0 mm | - | - | - |
| 1777009373 | 3.89° C | 90% | 1027.5 hPa | 0 mm | - | - | - |
| 1777008474 | 3.89° C | 90% | 1027.7 hPa | 0 mm | - | - | - |
| 1777007574 | 3.89° C | 90% | 1027.7 hPa | 0 mm | - | - | - |
| 1777006674 | 3.89° C | 90% | 1027.7 hPa | 0 mm | - | - | - |
| 1777005772 | 3.89° C | 89% | 1027.8 hPa | 0 mm | - | - | - |
| 1777004870 | 4.44° C | 90% | 1027.8 hPa | 0 mm | - | - | - |
| 1777003968 | 4.44° C | 89% | 1027.8 hPa | 0 mm | - | - | - |
| 1777003067 | 3.89° C | 89% | 1027.9 hPa | 0 mm | - | - | - |
| 1777002166 | 3.89° C | 89% | 1028 hPa | 0 mm | - | - | - |
| 1777001265 | 4.44° C | 89% | 1028.1 hPa | 0 mm | - | - | - |
| 1777000365 | 4.44° C | 89% | 1028 hPa | 0 mm | - | - | - |
| 1776999465 | 4.44° C | 89% | 1028.2 hPa | 0 mm | - | - | - |
| 1776998564 | 4.44° C | 89% | 1028.3 hPa | 0 mm | - | - | - |
| 1776997661 | 4.44° C | 90% | 1028.3 hPa | 0 mm | - | - | - |
* Rain latest hour (hover to see other rain measurements)
** Current wind speed in m/s (hover to see current wind gust speed)